Simultaneous Nadir Overpasses (SNOs) Predictions

Prediction of SNOs between GOES-15 and METOP-B Satellite Orbit:

Table of predicted SNOs for the next 14.0 days since TLE Epoch: 10/31/2020
Index Date Time (GOES-15) GOES-15 Lat,Lon METOP-B Lat,Lon Distance(km) Time Diff (sec)
1 10/31/2020 06:06:13 -0.18,-128.11 -0.43,-129.29 134.15 80
2 11/01/2020 05:48:13 -0.18,-128.09 0.65,-124.29 432.05 80
3 11/02/2020 18:07:05 0.18,-128.02 0.39,-128.85 94.89 80
4 11/03/2020 17:43:47 0.18,-127.99 -0.75,-123.86 470.81 80
5 11/05/2020 06:02:47 -0.19,-127.96 -0.29,-128.45 55.73 80
6 11/07/2020 18:03:40 0.20,-127.85 0.24,-128.01 18.50 80
7 11/10/2020 06:02:01 -0.21,-127.77 -0.19,-127.60 18.93 80
8 11/12/2020 18:00:15 0.21,-127.65 0.09,-127.17 54.76 80
